ARIANE 44LP DEB, 33543

Orbit data source: Space-Track

ARIANE 44LP DEB, 33543 is space debris in HEO originally from a launch on Sun, 11 Dec 1988 UTC launched from the French Guiana (FRGUI). Debris objects in space refer to the collection of defunct objects orbiting the Earth. Examples of debris include non-operational satellites, rocket bodies, and fragments generated from explosions, collisions, or faulty payload assembly.

Loading next visibility...
Identifier
33543, 1988-109S
Orbit
HEO
Country
Flag of FRFR
Related business
Manufacturer
Unknown
Mission
Spacecraft
Bus & Motor
Unknown
Mass
Unknown
Launch date (UTC)
1988-12-11 (37 years ago)
Launch vehicle
Unknown
Launch site
French Guiana (FRGUI)
Object type
Payload
Rocket body
Debris
Shape & HBR
Unknown shape, 0.8 m
Radar Cross Section
Medium (>0.1 m² and <1 m²)

Expand to show TLE details & history
Last TLE update: 5 months ago

TLE from 5 months ago
0 ARIANE 44LP DEB
1 33543U 88109S   25238.31919596 -.00000022  00000-0  18669-2 0  9994
2 33543   6.6582 163.6914 7147154 200.6910 110.4518  2.27094192189109
Epoch: 2025-08-26T07:39Z
TLE epoch observation values (Epoch: 2025-08-26T07:39:38.530Z)
Latitude
0.32218°
Longitude
76.78113°
Altitude
31,067.149 km
Speed
2.233 km/s
True Right ascension
11h 06m 01s
True Declination
0° 19' 19"
Sunlit
Object was in daylight at epoch
Visualization orbit readout
Latitude
Unknown
Longitude
Unknown
Altitude
Unknown
Speed
Unknown
Apparent Right ascension
Unknown
Apparent Declination
Unknown
Sunlit
N/A
Visualization observer readout
Local Sidereal Time
04:37:57
Azimuth
Unknown
Elevation
Unknown
Doppler factor
Unknown
Orbital elements
Apogee altitude
35,554.14 km
Perigee altitude
598.317 km
Semi-major axis
24,454.365 km
Eccentricity
0.71472
Inclination
6.6582°
RAAN
163.6914°
Arg. of periapsis
200.691°
True anomaly
162.15847°
Mean anomaly
110.4518°
Eccentric anomaly
137.90385°
Mean motion
0.56756 °/min
Orbital period
634.3 mins
BSTAR
0.0018669
Loading maneuver chart data...
Computing Atmospheric mass density...
Loading historical data...
Loading historical data...
Loading historical data...
Loading historical data...
Loading historical data...
Loading historical data...
Loading historical data...

Documentation

Showing up to 5 results
|